Stations météo

réclame
Mon MeteoGroup
Manresa, Espagne (8174): Température de l'air & dewpoint: 18.10.2018 01:00:00 - 24.10.2018 01:00:00 (CEST)Manresa, Espagne (8174): Vitesse du vent & gusts: 18.10.2018 01:00:00 - 24.10.2018 01:00:00 (CEST)Manresa, Espagne (8174): Direction du vent: 18.10.2018 01:00:00 - 24.10.2018 01:00:00 (CEST)Manresa, Espagne (8174): reduced air pressure: 18.10.2018 01:00:00 - 24.10.2018 01:00:00 (CEST)Manresa, Espagne (8174): visibility: 18.10.2018 01:00:00 - 24.10.2018 01:00:00 (CEST)Manresa, Espagne (8174): Ensoleillement: 18.10.2018 01:00:00 - 24.10.2018 01:00:00 (CEST)Manresa, Espagne (8174): Quantités de précipitations: 18.10.2018 01:00:00 - 24.10.2018 01:00:00 (CEST)
Date & Time tt [°C] td [°C] ff [km/h] ff [knt] fx [km/h] fx [knt] dd ppp [hPa] vv [km] sd [min] rr [mm]
24.10.2018 01:00:00 - - - - - - - - - - -
24.10.2018 00:00:00 11,1 9,0 6 3 9 5 ENE 1026,4 11 0 0,0
23.10.2018 23:00:00 12,5 9,6 4 2 9 5 ENE 1026,3 11 0 0,0
23.10.2018 22:00:00 14,1 9,6 3 2 9 5 NNE 1026,0 12 0 0,0
23.10.2018 21:00:00 15,1 9,7 4 2 14 7 NW 1025,8 14 0 0,0
23.10.2018 20:00:00 15,9 9,6 9 5 15 8 WNW 1025,4 17 0 -
23.10.2018 19:00:00 17,4 9,3 7 4 20 11 W 1024,6 20 23 0,0
23.10.2018 18:00:00 20,2 8,8 10 6 16 9 W 1024,3 20 60 0,0
23.10.2018 17:00:00 20,6 9,6 3 2 9 5 NW 1024,4 18 60 0,0
23.10.2018 16:00:00 19,6 10,3 6 3 14 8 NNE 1024,6 20 60 0,0
23.10.2018 15:00:00 18,6 9,9 5 3 18 10 NNE 1025,2 13 60 0,0
23.10.2018 14:00:00 17,3 9,7 10 6 18 10 NE 1026,3 16 60 -
23.10.2018 13:00:00 16,1 9,0 8 4 14 7 N 1026,9 20 60 0,0
23.10.2018 12:00:00 15,2 9,3 5 3 12 6 N 1027,8 18 60 0,0
23.10.2018 11:00:00 13,5 8,4 5 3 10 6 NE 1027,9 16 60 0,0
23.10.2018 10:00:00 12,0 8,1 3 2 9 5 ENE 1027,9 19 32 0,0
23.10.2018 09:00:00 9,7 8,0 4 2 8 4 WNW 1027,5 8 0 0,0
23.10.2018 08:00:00 9,9 8,4 2 1 9 5 NW 1026,8 6 0 -
23.10.2018 07:00:00 10,4 9,0 5 3 10 6 NNE 1026,5 3,4 0 0,0
23.10.2018 06:00:00 10,7 9,4 5 3 10 6 NE 1025,8 3,6 0 0,0
23.10.2018 05:00:00 11,1 9,7 6 3 9 5 NNE 1025,4 3,1 0 0,0
23.10.2018 04:00:00 10,9 9,8 3 2 7 4 W 1025,5 3,5 0 0,0
23.10.2018 03:00:00 11,0 9,9 3 2 8 5 N 1025,7 3,4 0 0,0
23.10.2018 02:00:00 11,5 10,3 3 2 8 4 NE 1025,5 2,4 0 -
23.10.2018 01:00:00 12,2 11,0 5 3 7 4 NE 1025,5 4,5 0 0,0
23.10.2018 00:00:00 12,8 11,2 3 1 8 4 WSW 1025,2 6 0 0,0
22.10.2018 23:00:00 13,6 11,8 0 0 4 2 N 1024,6 8 0 0,0
22.10.2018 22:00:00 14,6 11,9 3 2 8 4 W 1024,0 10 0 0,0
22.10.2018 21:00:00 16,2 12,1 4 2 10 6 SSW 1023,3 15 0 0,0
22.10.2018 20:00:00 17,3 12,4 4 2 14 8 S 1022,4 15 0 -
22.10.2018 19:00:00 18,4 12,4 6 4 17 9 S 1021,8 16 0 0,0
22.10.2018 18:00:00 19,8 13,1 8 4 16 8 W 1021,1 17 3 0,0
22.10.2018 17:00:00 20,8 13,5 8 5 16 9 W 1020,6 20 34 0,0
22.10.2018 16:00:00 21,6 13,5 5 3 13 7 W 1020,1 20 29 0,0
22.10.2018 15:00:00 20,5 13,5 5 3 12 7 W 1020,6 17 10 0,0
22.10.2018 14:00:00 19,4 13,2 3 2 9 5 NNW 1021,3 14 26 -
22.10.2018 13:00:00 18,2 13,3 4 2 12 6 NNE 1022,0 12 60 0,0
22.10.2018 12:00:00 16,6 13,0 7 4 13 7 ENE 1022,2 14 19 0,0
22.10.2018 11:00:00 15,2 12,3 4 2 11 6 N 1022,1 10 0 0,0
22.10.2018 10:00:00 14,6 12,1 6 3 13 7 ENE 1021,9 17 0 0,0
22.10.2018 09:00:00 14,8 12,6 6 3 11 6 NE 1020,9 11 0 0,0
22.10.2018 08:00:00 14,9 12,7 4 2 8 5 N 1020,2 10 0 -
22.10.2018 07:00:00 14,7 13,0 2 1 6 3 W 1020,0 8 0 0,0
22.10.2018 06:00:00 14,4 12,7 3 1 7 4 W 1019,5 6 0 0,0
22.10.2018 05:00:00 14,7 13,1 1 1 5 3 NNW 1019,2 7 0 0,0
22.10.2018 04:00:00 14,2 12,7 1 1 5 3 NW 1019,3 6 0 0,0
22.10.2018 03:00:00 14,5 13,1 3 1 5 3 NNE 1019,4 7 0 0,0
22.10.2018 02:00:00 13,7 12,7 2 1 4 2 NNE 1019,7 3,4 0 -
22.10.2018 01:00:00 13,8 12,5 1 1 5 3 WSW 1019,5 3,3 0 0,0
22.10.2018 00:00:00 14,4 13,0 2 1 5 3 W 1019,4 3,6 0 0,0
21.10.2018 23:00:00 15,2 13,3 4 2 8 4 W 1019,2 5 0 0,0
21.10.2018 22:00:00 16,3 14,1 4 2 11 6 E 1018,9 9 0 0,0
21.10.2018 21:00:00 16,6 13,9 5 3 11 6 E 1018,7 11 0 0,0
21.10.2018 20:00:00 17,6 14,1 6 3 24 13 ENE 1018,7 13 0 -
21.10.2018 19:00:00 18,7 14,1 10 6 23 13 NW 1018,3 17 28 0,0
21.10.2018 18:00:00 - - - - - - - - - - -
21.10.2018 17:00:00 23,8 13,7 8 4 18 10 W 1017,9 20 60 0,0
21.10.2018 16:00:00 24,3 13,6 10 5 18 10 W 1018,3 20 60 0,0
21.10.2018 15:00:00 23,9 14,9 4 2 10 5 WSW 1019,0 20 60 0,0
21.10.2018 14:00:00 22,2 14,6 3 2 8 5 SSW 1020,0 20 60 -
21.10.2018 13:00:00 19,6 13,8 5 3 9 5 WSW 1021,7 18 60 0,0
21.10.2018 12:00:00 17,2 12,3 4 2 8 4 NNE 1022,7 8 60 0,0
21.10.2018 11:00:00 15,2 12,0 3 1 7 4 W 1023,5 14 42 0,0
21.10.2018 10:00:00 12,7 11,1 5 3 13 7 NNE 1024,1 6 0 0,0
21.10.2018 09:00:00 12,2 11,2 5 3 10 5 NE 1024,0 8 0 0,0
21.10.2018 08:00:00 12,1 11,0 1 1 10 6 SE 1023,7 12 0 -
21.10.2018 07:00:00 12,0 11,1 5 3 8 5 NE 1023,7 7 0 0,0
21.10.2018 06:00:00 12,3 11,2 2 1 4 2 N 1024,0 6 0 0,0
21.10.2018 05:00:00 12,5 11,2 1 1 7 4 W 1023,9 5 0 0,0
21.10.2018 04:00:00 13,1 12,0 5 3 9 5 NNE 1024,0 7 0 0,0
21.10.2018 03:00:00 13,4 12,1 2 1 4 2 NNE 1023,9 7 0 0,0
21.10.2018 02:00:00 13,9 12,4 2 1 6 4 NE 1024,1 7 0 -
21.10.2018 01:00:00 14,4 12,7 0 0 4 2 N 1024,0 9 0 0,0
21.10.2018 00:00:00 15,1 13,2 3 1 5 3 NE 1024,1 11 0 0,0
20.10.2018 23:00:00 16,0 13,5 1 1 6 4 SSW 1023,9 11 0 0,0
20.10.2018 22:00:00 16,8 13,9 1 1 6 3 SE 1023,3 15 0 0,0
20.10.2018 21:00:00 18,1 14,2 4 2 6 3 SSE 1022,9 12 0 0,0
20.10.2018 20:00:00 19,3 14,1 3 2 13 7 SSE 1022,4 18 0 -
20.10.2018 19:00:00 20,6 13,6 9 5 16 8 SSW 1021,6 20 0 0,0
20.10.2018 18:00:00 - - - - - - - - - - -
20.10.2018 17:00:00 23,4 12,6 6 3 14 7 SW 1020,7 20 54 0,0
20.10.2018 16:00:00 24,5 13,4 9 5 16 8 S 1020,4 20 60 0,0
20.10.2018 15:00:00 24,2 13,5 8 4 16 9 S 1020,8 20 60 0,0
20.10.2018 14:00:00 23,0 14,3 5 3 13 7 SSW 1021,5 20 60 -
20.10.2018 13:00:00 21,1 15,0 5 3 10 5 SSW 1022,3 13 50 0,0
20.10.2018 12:00:00 18,2 14,7 4 2 7 4 WSW 1022,8 19 0 0,0
20.10.2018 11:00:00 16,3 14,3 3 2 7 4 W 1022,8 14 1 0,0
20.10.2018 10:00:00 15,3 14,1 3 2 7 4 WSW 1022,6 4,6 0 0,0
20.10.2018 09:00:00 14,7 13,6 2 1 4 2 NNW 1021,7 5 0 0,0
20.10.2018 08:00:00 14,8 13,9 2 1 5 3 NNE 1021,0 4,2 0 -
20.10.2018 07:00:00 15,1 13,9 3 1 4 2 W 1020,6 3,7 0 0,0
20.10.2018 06:00:00 15,7 14,4 3 2 5 3 SW 1019,6 3,0 0 0,2
20.10.2018 05:00:00 16,0 14,7 1 1 9 5 SE 1019,5 2,8 0 0,2
20.10.2018 04:00:00 16,4 15,1 5 3 8 4 NE 1019,5 3,7 0 0,8
20.10.2018 03:00:00 16,6 14,8 5 3 16 8 SSW 1020,0 6 0 0,0
20.10.2018 02:00:00 - - - - - - - - - - -
20.10.2018 01:00:00 17,5 14,8 2 1 5 3 SSW 1019,1 10 0 0,0
20.10.2018 00:00:00 17,8 14,3 2 1 6 3 NNW 1019,0 19 0 0,0
19.10.2018 23:00:00 18,1 14,0 1 1 6 4 NE 1018,6 19 0 0,0
19.10.2018 22:00:00 18,7 13,6 3 1 8 5 NNE 1017,9 20 0 0,0
19.10.2018 21:00:00 19,5 13,5 5 3 10 6 NE 1017,5 20 0 0,0
19.10.2018 20:00:00 - - - - - - - - - - -
19.10.2018 19:00:00 20,5 13,0 11 6 22 12 NE 1016,1 20 0 0,0
19.10.2018 18:00:00 21,4 13,4 11 6 24 13 NE 1015,6 20 1 0,0
19.10.2018 17:00:00 21,8 12,6 14 7 24 13 NE 1015,4 16 0 0,0
19.10.2018 16:00:00 22,5 12,7 13 7 23 13 NE 1015,1 20 10 0,0
19.10.2018 15:00:00 22,9 13,1 13 7 29 15 NE 1014,9 20 24 0,0
19.10.2018 14:00:00 22,3 12,8 16 9 36 19 NE 1015,1 20 33 -
19.10.2018 13:00:00 21,6 12,7 16 8 32 17 NE 1015,4 20 41 0,0
19.10.2018 12:00:00 22,2 12,7 14 8 34 18 ENE 1015,4 20 60 0,0
19.10.2018 11:00:00 21,7 12,8 14 8 32 17 ENE 1015,5 20 52 0,0
19.10.2018 10:00:00 20,0 12,5 11 6 21 11 NE 1015,3 20 25 0,0
19.10.2018 09:00:00 18,2 12,2 7 4 12 7 NE 1014,8 20 0 0,0
19.10.2018 08:00:00 17,4 12,5 4 2 10 5 NE 1014,2 20 0 -
19.10.2018 07:00:00 18,5 12,0 7 4 22 12 ENE 1013,6 20 0 0,0
19.10.2018 06:00:00 18,3 12,3 10 5 18 10 NE 1012,9 20 0 0,0
19.10.2018 05:00:00 17,3 12,2 6 4 13 7 NE 1012,9 20 0 0,0
19.10.2018 04:00:00 17,4 12,5 5 3 14 7 ENE 1013,1 20 0 0,0
19.10.2018 03:00:00 16,9 12,8 1 1 15 8 SW 1013,2 20 0 0,0
19.10.2018 02:00:00 17,4 12,7 8 4 19 10 NNE 1012,8 20 0 -
19.10.2018 01:00:00 18,4 12,6 13 7 25 13 NE 1013,0 20 0 0,0
19.10.2018 00:00:00 17,0 12,7 7 4 16 9 NNE 1013,5 20 0 0,0
18.10.2018 23:00:00 18,0 12,6 10 5 18 10 NE 1013,3 20 0 0,0
18.10.2018 22:00:00 17,9 12,7 10 5 18 10 NE 1012,7 20 0 0,0
18.10.2018 21:00:00 17,8 12,8 5 3 19 10 NNE 1012,3 20 0 0,0
18.10.2018 20:00:00 18,5 13,4 9 5 19 11 NNE 1012,1 20 0 -
18.10.2018 19:00:00 18,5 13,9 3 1 14 7 N 1011,6 20 0 0,0
18.10.2018 18:00:00 19,1 13,9 8 4 21 11 NNE 1011,0 20 0 0,0
18.10.2018 17:00:00 19,4 14,2 11 6 28 15 NE 1010,9 20 0 0,0
18.10.2018 16:00:00 19,2 15,1 13 7 24 13 NE 1010,8 20 0 0,0
18.10.2018 15:00:00 18,2 15,4 8 4 16 9 N 1011,6 20 0 0,2
18.10.2018 14:00:00 18,4 15,1 5 3 23 12 NE 1012,2 19 0 -
18.10.2018 13:00:00 18,2 14,3 10 5 26 14 NNE 1012,4 20 0 0,0
18.10.2018 12:00:00 17,2 13,4 5 3 7 4 N 1012,5 10 7 0,0
18.10.2018 11:00:00 16,6 12,5 3 1 7 4 NNE 1012,7 19 56 0,0
18.10.2018 10:00:00 14,7 12,0 3 1 7 4 ENE 1012,8 12 27 0,0
18.10.2018 09:00:00 12,8 11,7 2 1 6 4 N 1012,8 10 0 0,0
18.10.2018 08:00:00 13,1 11,8 3 2 6 4 WNW 1012,6 6 0 -
18.10.2018 07:00:00 13,1 12,0 3 1 7 4 ENE 1012,4 7 0 0,0
18.10.2018 06:00:00 13,2 12,1 2 1 5 3 W 1012,3 5 0 0,0
18.10.2018 05:00:00 13,6 12,5 3 1 6 4 N 1012,6 9 0 0,0
18.10.2018 04:00:00 13,9 12,6 1 1 6 3 NNE 1012,8 9 0 0,0
18.10.2018 03:00:00 14,3 13,1 1 1 5 3 WNW 1013,4 8 0 0,0
18.10.2018 02:00:00 14,9 13,5 2 1 5 3 WSW 1013,8 10 0 -
18.10.2018 01:00:00 15,6 13,7 2 1 7 4 NNW 1014,1 17 0 0,0

tt = Température de l'air
td = dewpoint
ff = Vitesse du vent
fx = gusts
dd = Direction du vent
ppp = reduced air pressure
vv = visibility
sd = Ensoleillement
rr = Quantités de précipitations

stations d'obs. à proximité